Location: Cedar Brake
(32.2526°N, 97.8459°W)
Time: 20:28:10
(UTC+00:00)

NOSS 3-4 (A) - Pass Details

Date: 22 April 2026
Orbit: 769 x 1442 km, 63.4° (Epoch: 10 January)

Event Time Altitude Azimuth Distance (km) Brightness Sun altitude
Rises 01:22:47 0° 221° (SW) 3,239 6.6 -4.4°
Reaches altitude 10° 01:25:13 10° 227° (SW) 2,301 5.9 -4.9°
Maximum altitude 01:30:16 52° 303° (WNW) 963 4.1 -5.9°
Drops below altitude 10° 01:35:35 10° 20° (NNE) 2,425 5.6 -6.9°
Sets 01:38:13 0° 25° (NNE) 3,431 6.3 -7.5°
